Tirstrup, Denmark

11:00 PM CEST on October 17, 2017 (GMT +0200)
Aarhus

Weather History for EKAH - December, 2013

Change the Weather History Date:

Friday, December 6, 2013

  Actual Average Record
Temperature  
Mean Temperature 36 °F -  
Max Temperature 39 °F 38 °F 54 °F (2015)
Min Temperature 32 °F 33 °F 16 °F (2012)
Degree Days  
Heating Degree Days 30    
Moisture  
Dew Point 23 °F    
Average Humidity 59    
Maximum Humidity 93    
Minimum Humidity 35    
Precipitation  
Precipitation 0.01 in - - ()
Sea Level Pressure  
Sea Level Pressure 29.38 in    
Wind  
Wind Speed 24 mph ()    
Max Wind Speed 38 mph    
Max Gust Speed 59 mph    
Visibility 6.9 miles    
Events Rain    
Averages and records for this station are not official NWS values.
T = Trace of Precipitation, MM = Missing Value Source: Averaged Metar Reports

Daily Weather History Graph

Daily Weather History Graph

Search for Another Location

Airport or City:

Trip Planner

Search our weather history database for the weather conditions in past years. The results will help you decide how hot, cold, wet, or windy it might be!

Date:

Astronomy

Dec. 06, 2013 Rise Set
Actual Time 8:34 AM CET 3:42 PM CET
Civil Twilight 7:47 AM CET 4:29 PM CET
Nautical Twilight 6:58 AM CET 5:18 PM CET
Astronomical Twilight 6:12 AM CET 6:04 PM CET
Moon 11:02 AM CET (12/6) 8:24 PM CET (12/6)
Length of Visible Light 8h 42m
Length of Day
7h 08m
Waxing Crescent, 17% of the Moon is Illuminated
Dec 6
Waxing Crescent
Dec 9
First Quarter
Dec 17
Full
Dec 25
Last Quarter
Jan 1
New

Hourly Weather History & Observations

Time (CET) Temp. Windchill Dew Point Humidity Pressure Visibility Wind Dir Wind Speed Gust Speed Precip Events Conditions
12:20 AM 33.8 °F 18.8 °F 28.4 °F 81% 29.03 in 6.2 mi West 36.8 mph 58.7 mph N/A Rain Light Rain Showers
12:50 AM 33.8 °F 18.6 °F 30.2 °F 87% 29.03 in 6.2 mi West 38.0 mph 54.1 mph N/A   Mostly Cloudy
1:00 AM 34 °F - 30 °F 79% 29.06 in 17 mi West 33.4 mph - - Rain Rain
1:20 AM 35.6 °F 21.5 °F 30.2 °F 81% 29.03 in 6.2 mi West 35.7 mph 50.6 mph N/A   Mostly Cloudy
1:50 AM 33.8 °F 19.9 °F 30.2 °F 87% 29.03 in 3.1 mi West 31.1 mph 49.5 mph N/A Rain Light Rain Showers
2:20 AM 33.8 °F 20.8 °F 32.0 °F 93% 29.03 in 6.2 mi West 26.5 mph 40.3 mph N/A Rain Light Rain Showers
2:50 AM 35.6 °F 23.2 °F 30.2 °F 81% 29.06 in 6.2 mi West 26.5 mph - N/A   Mostly Cloudy
3:20 AM 35.6 °F 24.2 °F 30.2 °F 81% 29.06 in 6.2 mi WNW 21.9 mph - N/A   Partly Cloudy
3:50 AM 37.4 °F 26.1 °F 30.2 °F 75% 29.06 in 6.2 mi WNW 24.2 mph 35.7 mph N/A   Partly Cloudy
4:00 AM 37 °F - 28 °F 60% 29.08 in 19 mi WNW 25.3 mph - -  
4:20 AM 37.4 °F 26.4 °F 26.6 °F 65% 29.09 in 6.2 mi WNW 23.0 mph 38.0 mph N/A   Scattered Clouds
4:50 AM 37.4 °F 26.9 °F 26.6 °F 65% 29.09 in 6.2 mi WNW 20.7 mph - N/A   Partly Cloudy
5:20 AM 37.4 °F 25.6 °F 26.6 °F 65% 29.12 in 6.2 mi WNW 26.5 mph 41.4 mph N/A   Unknown
5:50 AM 37.4 °F 25.9 °F 24.8 °F 60% 29.15 in 6.2 mi WNW 25.3 mph 36.8 mph N/A   Unknown
6:20 AM 37.4 °F 25.4 °F 23.0 °F 56% 29.18 in 6.2 mi WNW 27.6 mph 42.6 mph N/A   Unknown
6:50 AM 37.4 °F 26.4 °F 21.2 °F 52% 29.18 in 6.2 mi WNW 23.0 mph 38.0 mph N/A   Unknown
7:00 AM 36 °F - 21 °F 41% 29.22 in 31 mi WNW 24.2 mph - -  
7:20 AM 35.6 °F 23.2 °F 19.4 °F 52% 29.21 in 6.2 mi WNW 26.5 mph 38.0 mph N/A   Unknown
7:50 AM 35.6 °F 24.2 °F 21.2 °F 56% 29.24 in 6.2 mi WNW 21.9 mph - N/A   Unknown
8:20 AM 37.4 °F 25.6 °F 19.4 °F 48% 29.24 in 6.2 mi WNW 26.5 mph 40.3 mph N/A   Unknown
8:50 AM 35.6 °F 24.2 °F 19.4 °F 52% 29.27 in 6.2 mi WNW 21.9 mph 33.4 mph N/A   Unknown
9:20 AM 35.6 °F 24.5 °F 21.2 °F 56% 29.30 in 6.2 mi WNW 20.7 mph - N/A   Unknown
9:50 AM 37.4 °F 26.6 °F 21.2 °F 52% 29.33 in 6.2 mi NW 21.9 mph 33.4 mph N/A   Unknown
10:00 AM 37 °F - 21 °F 39% 29.34 in 22 mi WNW 24.2 mph - -  
10:20 AM 37.4 °F 26.1 °F 21.2 °F 52% 29.33 in 6.2 mi NW 24.2 mph 35.7 mph N/A   Partly Cloudy
10:50 AM 37.4 °F 26.9 °F 19.4 °F 48% 29.36 in 6.2 mi NW 20.7 mph 33.4 mph N/A   Unknown
11:20 AM 37.4 °F 26.6 °F 19.4 °F 48% 29.36 in 6.2 mi NW 21.9 mph 36.8 mph N/A   Unknown
11:50 AM 37.4 °F 26.4 °F 21.2 °F 52% 29.39 in 6.2 mi WNW 23.0 mph 34.5 mph N/A   Unknown
12:20 PM 37.4 °F 26.1 °F 23.0 °F 56% 29.42 in 6.2 mi WNW 24.2 mph 39.1 mph N/A   Unknown
12:50 PM 39.2 °F 28.5 °F 21.2 °F 49% 29.42 in 6.2 mi NW 24.2 mph 43.7 mph N/A   Unknown
1:00 PM 39 °F - 21 °F 35% 29.43 in 25 mi WNW 25.3 mph - -  
1:20 PM 39.2 °F 28.7 °F 21.2 °F 49% 29.42 in 6.2 mi NW 23.0 mph 34.5 mph N/A   Unknown
1:50 PM 39.2 °F 28.7 °F 21.2 °F 49% 29.44 in 6.2 mi NW 23.0 mph 38.0 mph N/A   Scattered Clouds
2:20 PM 39.2 °F 28.7 °F 21.2 °F 49% 29.47 in 6.2 mi NW 23.0 mph 39.1 mph N/A   Mostly Cloudy
2:50 PM 39.2 °F 29.3 °F 24.8 °F 56% 29.47 in 6.2 mi NW 20.7 mph 34.5 mph N/A Rain Light Rain Showers
3:20 PM 37.4 °F 25.6 °F 24.8 °F 60% 29.50 in 6.2 mi WNW 26.5 mph 40.3 mph N/A Rain Light Rain Showers
3:50 PM 37.4 °F 25.4 °F 24.8 °F 60% 29.53 in 6.2 mi WNW 27.6 mph - N/A   Mostly Cloudy
4:00 PM 37 °F - 25 °F 50% 29.54 in 19 mi WNW 25.3 mph - -   Clear
4:20 PM 37.4 °F 25.9 °F 24.8 °F 60% 29.53 in 6.2 mi WNW 25.3 mph 39.1 mph N/A   Scattered Clouds
4:50 PM 35.6 °F 24.0 °F 24.8 °F 65% 29.56 in 6.2 mi WNW 23.0 mph 34.5 mph N/A   Partly Cloudy
5:20 PM 35.6 °F 23.7 °F 24.8 °F 65% 29.56 in 6.2 mi WNW 24.2 mph 39.1 mph N/A   Partly Cloudy
5:50 PM 35.6 °F 23.2 °F 23.0 °F 60% 29.59 in 6.2 mi WNW 26.5 mph 39.1 mph N/A   Unknown
6:20 PM 35.6 °F 24.5 °F 23.0 °F 60% 29.59 in 6.2 mi WNW 20.7 mph 32.2 mph N/A   Unknown
6:50 PM 35.6 °F 24.2 °F 21.2 °F 56% 29.62 in 6.2 mi WNW 21.9 mph 33.4 mph N/A   Unknown
7:00 PM 35 °F - 22 °F 47% 29.63 in 25 mi WNW 20.7 mph - -  
7:20 PM 35.6 °F 24.8 °F 23.0 °F 60% 29.62 in 6.2 mi WNW 19.6 mph 32.2 mph N/A   Unknown
7:50 PM 33.8 °F 22.2 °F 21.2 °F 60% 29.65 in 6.2 mi WNW 20.7 mph - N/A   Unknown
8:20 PM 33.8 °F 22.2 °F 23.0 °F 65% 29.65 in 6.2 mi WNW 20.7 mph - N/A   Unknown
8:50 PM 33.8 °F 22.5 °F 21.2 °F 60% 29.68 in 6.2 mi WNW 19.6 mph - N/A   Unknown
9:20 PM 33.8 °F 22.5 °F 21.2 °F 60% 29.71 in 6.2 mi WNW 19.6 mph - N/A   Unknown
9:50 PM 33.8 °F 22.5 °F 21.2 °F 60% 29.71 in 6.2 mi WNW 19.6 mph - N/A   Unknown
10:00 PM 34 °F - 20 °F 45% 29.74 in 31 mi WNW 19.6 mph - -  
10:20 PM 33.8 °F 22.8 °F 19.4 °F 56% 29.74 in 6.2 mi WNW 18.4 mph - N/A   Unknown
10:50 PM 33.8 °F 22.8 °F 19.4 °F 56% 29.74 in 6.2 mi WNW 18.4 mph - N/A   Unknown
11:20 PM 33.8 °F 23.2 °F 19.4 °F 56% 29.77 in 6.2 mi WNW 17.3 mph - N/A   Unknown
11:50 PM 32.0 °F 20.8 °F 19.4 °F 60% 29.77 in 6.2 mi WNW 17.3 mph - N/A   Unknown